Location: Newark
(28.5667°N, 77.2000°E)
Time: 08:40:28
(UTC+00:00)

Envisat - Visible Passes

Search period start: 10 August 2020 00:00
Search period end: 20 August 2020 00:00
Orbit: 764 x 766 km, 98.1° (Epoch: 10 August)

Date Brightness Start Highest point End Pass type
(mag) Time Alt. Az. Time Alt. Az. Time Alt. Az.
10 Aug 5.9 23:48:36 10° ENE 23:51:27 15° E 23:54:16 10° SE visible
13 Aug 6.3 23:38:42 10° ENE 23:40:01 11° E 23:41:20 10° ESE visible
18 Aug 5.9 23:51:02 10° NE 23:54:13 17° E 23:57:23 10° SE visible
